BGBW

Details ICAO BGBW (UAK)
Name Narsarsuaq
Region Greenland
Timezone America/Godthab (UTC-3.0)
Plans Departing 962
Arriving 1282
Stats Elevation 111 ft / 34 m (AMSL)
Location 61.160700° -45.425700°
Runways 1
Magnetic Variation 22.020° W
Sunrise 2020-11-29 11:44:41 UTC / 2020-11-29 08:44:41 Local
Sunset 2020-11-29 17:58:38 UTC / 2020-11-29 14:58:38 Local
Advertisement - Login to hide

Runways

ID Width Length Bearing (true/mag) Surface Threshold Overrun Markings Lighting
07 148 ft / 45 m 6,010 ft / 1,832 m 40.52° / 62.54° CONCRETE 446 ft / 136 m 0 ft / 0 m PREC-APP EDGE THRESHOLD
25 148 ft / 45 m 6,010 ft / 1,832 m 220.54° / 242.56° CONCRETE 0 ft / 0 m 243 ft / 74 m PREC-APP EDGE THRESHOLD

Map

Weather


0- 5 10 15 20 25 30 35+ Temperature / °C

Clouds and Precipitation
Forecast for 2020-11-30 00:00 UTC. Updated 4 hours ago

Ground ~20,000 ft ~40,000 ft Winds

METAR

BGBW 300050Z AUTO 09004KT 9999NDV SCT120/// BKN140/// M05/M14 Q1010

TAF

Not found

Frequencies

Tower 119.10 MHz AFIS
Warning: Do not use this data for real-world aviation or navigation. No guarantee of current accuracy is given.